Tracking 29892 objects as of 21-Nov-2024
HD Live streaming from Space Station
objects crossing your sky now

METEOR 2-5 DEB

Track METEOR 2-5 DEB now!
10-day predictions


NORAD ID: 38272
Int'l Code: 1979-095BS
Perigee: 777.3 km
Apogee: 814.5 km
Inclination: 81.2 °
Period: 100.6 minutes
Semi major axis: 7166 km
RCS: 0.003 m2 (small)
Launch date: October 31, 1979
Source: Commonwealth of Independent States (former USSR) (CIS)
Launch site: PLESETSK MISSILE AND SPACE COMPLEX (PKMTR)

Note: This is SATELLITE DEBRIS
Your satellite tracking list
Your tracking list is empty




NASA's NSSDC Master Catalog

Two Line Element Set (TLE):
1 38272U 79095BS  24315.91790686  .00018819  00000-0  71266-2 0  9994
2 38272  81.2027  11.0646 0025950 284.2978 248.3427 14.30877746577155
Source of the keplerian elements: AFSPC